User: anonymous   Login
Location: Unspecified
(0.0000°N, 0.0000°E)
Time: 10:11:29
(UTC+00:00)
Language:

COSMOS 2489 - Orbit

View from above orbital plane
View from above orbital plane
View from above satellite
View from above satellite

Ground track
Ground track

The orbit data is extracted from the following two-line orbital elements,

1 39484U 13076B   24110.94128271  .00000088  00000-0  56573-3 0  9992
2 39484  82.4840 301.0567 0021484  16.0095 344.1659 12.42875879468023
Epoch (UTC): 19 April 2024 22:35:26
Eccentricity: 0.0021484
inclination: 82.4840°
perigee height: 1477 km
apogee height: 1511 km
right ascension of ascending node: 301.0567°
argument of perigee: 16.0095°
revolutions per day: 12.42875879
mean anomaly at epoch: 344.1659°
orbit number at epoch: 46802

The dashed part of the orbit path shows where the satellite is in the earth's shadow,  

DLR